Résultats

Cross Marseille Mediterranée 2014 - Course 04 - MiF

1 Km
21/12/2014 à 00:00:00 - ()
31 arrivant(e)s.


 
Les autres classements de cet évènement




Place▲ Temps Dossard Nom Prenom Categ #Categ Sexe #Sexe Club Vit Moy Diplôme Partager
1 00:11:31 413 COUZI LOUISE MIF 1 F 1 BLAGNAC SC 14.85
2 00:11:54 849 PELLICER MELINE MIF 2 F 2 SCO STE MARGUERITE MARSEILLE 14.37
3 00:12:04 652 IVARS LEA MIF 3 F 3 ROGNAC AC 14.17
4 00:12:12 457 FERRE MANON MIF 4 F 4 CSM LA SEYNE 9.9
5 00:12:18 2549 CAMARA WINNIE MIF 5 F 5 TOULON EC 13.90
6 00:12:28 519 IAAZOUZEN LATIFA MIF 6 F 6 ENA 13.72
7 00:12:30 636 SILVESTRE LUCIE MIF 7 F 7 OM ATHLETISME 13.68
8 00:13:04 239 FAUGIER AUXANE MIF 8 F 8 ALES CEVENNES ATHLETISME 9.9
9 00:13:15 226 ASTIER JADE MIF 9 F 9 ALES CEVENNES ATHLETISME 9.9
10 00:13:17 2547 HELOISE LAUREN MIF 10 F 10 ASPTT TOULON LA VALETTE 9.9
11 00:13:38 308 BELKOURI NORA MIF 11 F 11 ATHLETIC JEUNES BASTIA 9.9
12 00:13:40 242 GOMES MARIE MIF 12 F 12 ALES CEVENNES ATHLETISME 9.9
13 00:13:57 604 GAY CALISTA MIF 13 F 13 OM ATHLETISME 9.9
14 00:14:03 2571 REGHIOU JADE MIF 14 F 14 APM 9.9
15 00:14:12 619 ORIO EMELINE MIF 15 F 15 OM ATHLETISME 9.9
16 00:14:27 2112 GARCIA-MERCIER ALVA MIF 16 F 16 SMUC 9.9
17 00:14:28 631 SALINS MATHILDE MIF 17 F 17 OM ATHLETISME 9.9
18 00:14:41 333 EL-YAAGOUBI HAFSA MIF 18 F 18 ATHLETIC JEUNES BASTIA 9.9
19 00:14:48 319 BRIK MALIKA MIF 19 F 19 ATHLETIC JEUNES BASTIA 9.9
20 00:14:52 402 GUEDIN MELODIE MIF 20 F 20 BERRE SPORT ATHLETISME 9.9
21 00:15:04 349 VINCENSINI CAROLINE MIF 21 F 21 ATHLETIC JEUNES BASTIA 9.9
22 00:15:08 917 AGRESTA LAETITIA MIF 22 F 22 SMUC 9.9
23 00:15:15 612 KERZERHO MATHILDE MIF 23 F 23 OM ATHLETISME 9.9
24 00:15:41 2387 KHOUANE LINA MIF 24 F 24 UAVH AUBAGNE 9.9
25 00:16:25 489 GERLIER DORIANNE MIF 25 F 25 CSP ATHLE SUD LUBERON 9.9
26 00:16:37 2503 ESCOFFIER AUDREY MIF 26 F 26 USPEG MARSEILLE 9.9
27 00:17:06 305 ABERBACHE GHIZLAINE MIF 27 F 27 ATHLETIC JEUNES BASTIA 9.9
28 00:17:33 2488 BANDIERA LUANA MIF 28 F 28 USPEG MARSEILLE 9.9
29 00:18:18 104 DESCHUYTENEER LEA MIF 29 F 29 ABC LE BEAUSSET 9.9
30 00:18:38 847 PANYA MAEVA MIF 30 F 30 SCO STE MARGUERITE MARSEILLE 9.9
31 00:18:40 329 EL-BALLOULI LAMYAE MIF 31 F 31 ATHLETIC JEUNES BASTIA 9.9